Location: Montebello
(37.3256°N, 122.1789°W)
Time: 00:59:35
(UTC-07:00)

Envisat - Visible Passes

Search period start: 25 June 2018 00:00
Search period end: 05 July 2018 00:00
Orbit: 764 x 766 km, 98.2° (Epoch: 24 June)

Date Brightness Start Highest point End Pass type
(mag) Time Alt. Az. Time Alt. Az. Time Alt. Az.
25 Jun 5.8 21:57:59 10° WSW 21:59:27 11° W 22:00:55 10° WNW visible
26 Jun 5.0 21:18:08 10° SSW 21:22:23 27° W 21:26:40 10° NW visible
28 Jun 5.6 21:45:23 10° SW 21:48:10 15° W 21:50:59 10° WNW visible
29 Jun 4.6 21:06:35 10° SSW 21:11:10 34° W 21:15:47 10° NNW visible
01 Jul 5.5 21:33:21 10° SW 21:36:55 19° W 21:40:29 10° NW visible
02 Jul 4.2 20:55:08 10° S 20:59:57 44° W 21:04:48 10° NNW visible
04 Jul 5.2 21:21:35 10° SSW 21:25:40 24° W 21:29:46 10° NW visible
